Regional Weather Roundup
Issued by NWS

Home | Current Version | Previous Version | Graphics & Text | Print | Product List | Glossary On
Versions: 1 2 3 4 5 6 7 8 9 10 11 12 13 14 15 16 17 18 19 20 21 22 23 24 25 26 27 28 29 30 31 32 33 34 35 36 37 38 39 40 41 42 43 44 45 46 47 48 49 50
000
ASUS43 KIND 160409
RWRIN

WEATHER ROUNDUP FOR INDIANA
NATIONAL WEATHER SERVICE INDIANAPOLIS IN
1200 AM EDT MON OCT 16 2017

NOTE: "FAIR" INDICATES FEW OR NO CLOUDS BELOW 12,000 FEET WITH NO
SIGNIFICANT WEATHER AND/OR OBSTRUCTIONS TO VISIBILITY.

* - STATION DOES NOT REPORT WEATHER SUCH AS PRECIPITATION OR FOG.

+ - STATION NOT QUALITY CONTROLLED BY THE NATIONAL WEATHER SERVICE.
    USE DATA WITH CAUTION...ESPECIALLY DEWPOINT AND RELATIVE
    HUMIDITY OBSERVATIONS.

INZ001>003-010>013-019-020-160500-
NORTHWEST INDIANA

CITY           SKY/WX    TMP DP  RH WIND       PRES   REMARKS
GARY /AIRPORT/ PTCLDY    50  41  70 W10       30.25R
KNOX *+        CLOUDY    46  46 100 CALM      30.23S
LA PORTE +     DRIZZLE   48  47  94 CALM      30.23S
MICHIGAN CITY+ CLOUDY    50  45  81 NW9       30.23R
MONTICELLO +   CLOUDY    50  42  74 NW8       30.24R
RENSSELAER +   CLEAR     48  39  71 W6        30.24S
VALPARAISO     MOCLDY    51  43  74 W7        30.23S

$$

LMZ046-743>745-160500-
SOUTHERN LAKE MICHIGAN

STATION/POSITION TIME  TEMP    WIND        PRES    WAVE
                       AIR SEA DIR/SP/G            HT
                 (UTC) (F)     (DEG/KT/KT) (MB)    (FT)
BURNS HARBOR     0340   54     310/ 16/ 21 1023.7R
MICHIGAN CITY    0340   54     290/ 20/ 23   N/A
5NW MICH CITY    0400   54 57  310/ 17/ 23   N/A     8

$$

INZ004-005-014>016-021>024-160500-
NORTH CENTRAL INDIANA

CITY           SKY/WX    TMP DP  RH WIND       PRES   REMARKS
GOSHEN         PTCLDY    44  41  89 W6        30.21R
LOGANSPORT +   CLOUDY    50  43  76 NW9       30.24R
PERU/GRISSOM   CLOUDY    51  44  75 NW9       30.22R
SOUTH BEND     LGT RAIN  48  48 100 CALM      30.22R
WARSAW +       MOCLDY    46  45  93 CALM      30.21S

$$

INZ006>009-017-018-025>027-160500-
NORTHEAST INDIANA

CITY           SKY/WX    TMP DP  RH WIND       PRES   REMARKS
AUBURN +       PTCLDY    46  43  87 NW3       30.20S
FORT WAYNE     PTCLDY    49  42  77 NW7       30.21R
HUNTINGTON +   PTCLDY    47  44  87 NW3       30.21R
KENDALLVILLE + PTCLDY    46  44  90 NW3       30.20S

$$

INZ028-029-035-036-043>045-051>053-160500-
WEST CENTRAL INDIANA

CITY           SKY/WX    TMP DP  RH WIND       PRES   REMARKS
CRAWFORDSVL +  CLOUDY    48  43  81 NW9       30.26R
GREENCASTLE +  CLOUDY    50  41  71 NW3       30.26R
LAFAYETTE      MOCLDY    49  43  80 NW8       30.24S
TERRE HAUTE    CLOUDY    53  42  66 NW5       30.27R

$$

INZ030>032-037>040-046>048-054>057-064-065-160500-
CENTRAL INDIANA

CITY           SKY/WX    TMP DP  RH WIND       PRES   REMARKS
CP ATTERBURY + MOCLDY    50  43  76 NW5       30.24R
FISHERS *+     CLOUDY    50  46  87 NW5       30.23R
FRANKFORT +    CLOUDY    53  45  75 NW8       30.26R
GREENWOOD *+   PTCLDY    54  46  74 NW6       30.23S
INDIANAPOLIS   PTCLDY    50  43  77 NW8       30.24R
-EAGLE CREEK   MOCLDY    52  43  71 NW9       30.23R
KOKOMO +       CLOUDY    51  44  77 NW10      30.23R
MT COMFORT *+  CLEAR     46  46 100 NW7       30.23S
SHELBYVILLE    PTCLDY    51  42  71 N7        30.22R
ZIONSVILLE +   CLOUDY    49  44  80 NW7       30.24R

$$

INZ033-034-041-042-049-050-058-059-160500-
EAST CENTRAL INDIANA

CITY           SKY/WX    TMP DP  RH WIND       PRES   REMARKS
MUNCIE         LGT RAIN  52  46  80 N7        30.21R
RICHMOND +     MOCLDY    48  45  87 NW8       30.20R

$$

INZ060-061-067>069-081>083-085>088-160500-
SOUTHWEST INDIANA

CITY           SKY/WX    TMP DP  RH WIND       PRES   REMARKS
EVANSVILLE     CLOUDY    53  41  63 N6        30.28R
HUNTINGBURG +  MOCLDY    53  42  66 N7        30.27R
WASHINGTON +   CLEAR     49  39  69 NW6       30.27R

$$

INZ062-063-066-070>080-084-089>092-160500-
SOUTH CENTRAL AND SOUTHEAST INDIANA

CITY           SKY/WX    TMP DP  RH WIND       PRES   REMARKS
BEDFORD +      CLOUDY    52  41  66 NW3       30.24S
BLOOMINGTON    CLOUDY    52  42  69 NW5       30.25R
MADISON *+     CLOUDY    52  41  66 CALM      30.25R
NORTH VERNON + PTCLDY    48  43  81 W5        30.23S
SEYMOUR +      CLOUDY    52  43  71 NW6       30.24R

$$





USA.gov is the U.S. government's official web portal to all federal, state and local government web resources and services.